KUIPER-00183

导读

KUIPER-00183是由美国于2025年12月15日发射的卫星,隶属于亚马逊柯伊伯(Project Kuiper)卫星互联网项目,该项目旨在搭建覆盖全球的低轨卫星通信网络,为偏远地区提供高速网络连接服务。KUIPER-00183作为项目组网卫星之一,运行在近地轨道,它的成功发射进一步推进了柯伊伯星座的部署进程,助力全球卫星通信网络的构建,有望填补地面网络未覆盖区域的服务空白。

Basic Information
目录编号:
67138
目录名称:
KUIPER-00183
国际标识:
2025-301F
轨道中心:
EARTH
卫星名称:
KUIPER-00183
卫星全名:
KUIPER-00183
卫星状态:
在轨 (已飞行270 天)
发射日期:
2025-12-15 UTC
国别 :
美国 (US)
星等 :
--
This satellite is enrolled in the Space Conjunction Data Service (SCDS) and the current flight risk assessment level is: No High Risk
Orbit Information
数据来源 国际轨道数据 AOE轨道数据
星历时间 2026-09-11T15:37:04+0800
10小时前
查看轨道信息
2026-09-06T06:00:00+0800
5天前
查看轨道信息
半长轴 7007.691km 7007.702km
偏心率 0.0000335 0.0000591
轨道倾角 51.903° 51.904°
近地点辐角 82.495° 16.487°
升交点赤经 307.301° 331.185°
平近点角 277.605° 352.460°
近地点 629.319km 629.15km
远地点 629.789km 629.98km
周期 97.302分钟 97.302分钟
每日圈数 14.799274 14.799237
Detailed Information
使用方式:
暂无
2D Orbit Map
3D Orbit Map
Orbit Altitude Analysis Chart
Orbit Inclination Analysis Chart
Orbit Comprehensive Analysis Chart
View Comprehensive Chart
Conjunction Data List
Event ID Objects TCA Miss Dist (km) Collision Risk Probability Collision Risk Index (CRI) Action
CDM_260911-161003-886006-713826
SJ-9A (38860)
2026-09-11T
16:10:29+0000
0.417 km
远距离
2.485268E-4 高风险 0.83
CDM_260914-045303-344606-713821
YAOGAN 4 (33446)
2026-09-14T
04:53:27+0000
1.804 km
极远距离
3.313881E-6 低风险 0.45
CDM_260913-004403-660206-713822
2026-09-13T
00:44:58+0000
2.160 km
极远距离
2.319232E-6 低风险 0.42
Miss Distance Evolution Trend with All Objects
Collision Probability Evolution Trend with All Objects